Tracking 30061 objects as of 9-Dec-2024
HD Live streaming from Space Station
objects crossing your sky now

OPS 5798 DEB

Track OPS 5798 DEB now!
10-day predictions


NORAD ID: 903
Int'l Code: 1964-063F
Perigee: 956.9 km
Apogee: 988.5 km
Inclination: 90.2 °
Period: 104.4 minutes
Semi major axis: 7343 km
RCS: 0.0502 m2 (small)
Launch date: October 6, 1964
Source: United States (US)
Launch site: AIR FORCE WESTERN TEST RANGE (AFWTR)

Note: This is SATELLITE DEBRIS
Your satellite tracking list
Your tracking list is empty




NASA's NSSDC Master Catalog

Two Line Element Set (TLE):
1   903U 64063F   24343.69978971  .00001628  00000-0  15698-2 0  9991
2   903  90.2134  58.2611 0021538   0.8977 152.7089 13.79535954998229
Source of the keplerian elements: AFSPC